International Skating Union - Official Site

ISU World Junior Speed Skating Championships 2017
February 17-19, 2017

Draw | Lap Times | Index | Classification

Referee: Melanie  SYMALLA  (GER)
Starter: Sebastian  ZAMANI  (SWE)
StartTime: EndTime: Air Temp: Ice Temp: Humidity:
15:10 16:48 4℃ -4.7℃ 67%
Result 5000m Men
Rankings as of Feb 19 2017 1:32PM
Rank: No.: Name: Nation: Time: Behind: Points:
1 49 Chris  Huizinga NED NED 6:46.40200m - 19.42 - (19.4)
600m - 51.11 - (31.6)
1000m - 1:23.11 - (32.0)
1400m - 1:55.07 - (31.9)
1800m - 2:27.03 - (31.9)
2200m - 2:58.88 - (31.8)
2600m - 3:31.05 - (32.1)
3000m - 4:03.22 - (32.1)
3400m - 4:35.62 - (32.4)
3800m - 5:07.95 - (32.3)
4200m - 5:40.72 - (32.7)
4600m - 6:13.62 - (32.8)
5000m - 6:46.40 - (32.7)
40.640
2 51 Marwin  Talsma NED NED 6:56.45200m - 20.54 - (20.5)
600m - 52.25 - (31.7)
1000m - 1:23.70 - (31.4)
1400m - 1:56.14 - (32.4)
1800m - 2:28.85 - (32.7)
2200m - 3:01.65 - (32.8)
2600m - 3:34.29 - (32.6)
3000m - 4:06.94 - (32.6)
3400m - 4:40.11 - (33.1)
3800m - 5:14.53 - (34.4)
4200m - 5:49.04 - (34.5)
4600m - 6:23.09 - (34.0)
5000m - 6:56.45 - (33.3)
10.05 41.645
3 8 Graeme  Fish CAN CAN 6:58.48200m - 20.39 - (20.3)
600m - 52.91 - (32.5)
1000m - 1:24.92 - (32.0)
1400m - 1:58.01 - (33.0)
1800m - 2:30.76 - (32.7)
2200m - 3:03.89 - (33.1)
2600m - 3:36.84 - (32.9)
3000m - 4:09.99 - (33.1)
3400m - 4:43.33 - (33.3)
3800m - 5:17.07 - (33.7)
4200m - 5:50.89 - (33.8)
4600m - 6:24.51 - (33.6)
5000m - 6:58.48 - (33.9)
12.08 41.848
4 44 Hyun Min  Oh KOR KOR 7:01.75200m - 20.36 - (20.3)
600m - 52.73 - (32.3)
1000m - 1:25.04 - (32.3)
1400m - 1:57.80 - (32.7)
1800m - 2:30.36 - (32.5)
2200m - 3:03.26 - (32.8)
2600m - 3:36.58 - (33.3)
3000m - 4:10.03 - (33.4)
3400m - 4:43.89 - (33.8)
3800m - 5:18.05 - (34.1)
4200m - 5:52.37 - (34.3)
4600m - 6:26.61 - (34.2)
5000m - 7:01.75 - (35.1)
15.35 42.175
5 35 Riku  Tsuchiya JPN JPN 7:02.04200m - 19.70 - (19.6)
600m - 52.53 - (32.8)
1000m - 1:25.43 - (32.9)
1400m - 1:58.73 - (33.2)
1800m - 2:32.27 - (33.5)
2200m - 3:05.63 - (33.3)
2600m - 3:38.87 - (33.2)
3000m - 4:12.56 - (33.6)
3400m - 4:46.21 - (33.6)
3800m - 5:19.90 - (33.6)
4200m - 5:53.80 - (33.9)
4600m - 6:28.02 - (34.2)
5000m - 7:02.04 - (34.0)
15.64 42.204
6 32 Riki  Hayashi JPN JPN 7:02.19200m - 19.58 - (19.5)
600m - 52.21 - (32.6)
1000m - 1:24.36 - (32.1)
1400m - 1:56.84 - (32.4)
1800m - 2:30.04 - (33.1)
2200m - 3:03.73 - (33.6)
2600m - 3:37.68 - (33.9)
3000m - 4:11.97 - (34.2)
3400m - 4:46.54 - (34.5)
3800m - 5:21.29 - (34.7)
4200m - 5:55.76 - (34.4)
4600m - 6:29.49 - (33.7)
5000m - 7:02.19 - (32.6)
15.79 42.219
7 14 Alemasi  Kahanbai CHN CHN 7:05.55200m - 20.50 - (20.5)
600m - 52.43 - (31.9)
1000m - 1:24.83 - (32.3)
1400m - 1:57.40 - (32.5)
1800m - 2:30.61 - (33.2)
2200m - 3:03.66 - (33.0)
2600m - 3:36.85 - (33.1)
3000m - 4:09.85 - (33.0)
3400m - 4:43.86 - (34.0)
3800m - 5:19.01 - (35.1)
4200m - 5:54.78 - (35.7)
4600m - 6:30.21 - (35.4)
5000m - 7:05.55 - (35.3)
19.15 42.555
8 65 Yegor  Yunin RUS RUS 7:06.62200m - 19.96 - (19.9)
600m - 53.98 - (34.0)
1000m - 1:28.09 - (34.1)
1400m - 2:01.89 - (33.7)
1800m - 2:35.49 - (33.6)
2200m - 3:08.80 - (33.3)
2600m - 3:42.08 - (33.2)
3000m - 4:15.69 - (33.6)
3400m - 4:49.78 - (34.0)
3800m - 5:23.61 - (33.8)
4200m - 5:57.69 - (34.0)
4600m - 6:31.63 - (33.9)
5000m - 7:06.62 - (34.9)
20.22 42.662
9 55 Allan Dahl  Johansson NOR NOR 7:09.87200m - 19.83 - (19.8)
600m - 51.78 - (31.9)
1000m - 1:24.95 - (33.1)
1400m - 1:58.41 - (33.4)
1800m - 2:31.94 - (33.5)
2200m - 3:05.55 - (33.6)
2600m - 3:39.87 - (34.3)
3000m - 4:14.19 - (34.3)
3400m - 4:48.61 - (34.4)
3800m - 5:24.06 - (35.4)
4200m - 5:59.98 - (35.9)
4600m - 6:35.60 - (35.6)
5000m - 7:09.87 - (34.2)
23.47 42.987
10 54 Magnus Bakken  Haugli NOR NOR 7:11.12200m - 19.57 - (19.5)
600m - 51.61 - (32.0)
1000m - 1:25.32 - (33.7)
1400m - 1:58.76 - (33.4)
1800m - 2:32.52 - (33.7)
2200m - 3:06.54 - (34.0)
2600m - 3:40.98 - (34.4)
3000m - 4:15.60 - (34.6)
3400m - 4:50.82 - (35.2)
3800m - 5:26.19 - (35.3)
4200m - 6:01.06 - (34.8)
4600m - 6:36.45 - (35.3)
5000m - 7:11.12 - (34.6)
24.72 43.112
11 36 Aoi  Yokoyama JPN JPN 7:11.79200m - 19.92 - (19.9)
600m - 52.73 - (32.8)
1000m - 1:26.41 - (33.6)
1400m - 1:59.96 - (33.5)
1800m - 2:33.67 - (33.7)
2200m - 3:07.93 - (34.2)
2600m - 3:42.06 - (34.1)
3000m - 4:16.69 - (34.6)
3400m - 4:51.59 - (34.8)
3800m - 5:26.51 - (34.9)
4200m - 6:01.23 - (34.7)
4600m - 6:36.49 - (35.2)
5000m - 7:11.79 - (35.2)
25.39 43.179
12 62 Egor  Bukin RUS RUS 7:13.33200m - 20.63 - (20.6)
600m - 53.25 - (32.6)
1000m - 1:27.00 - (33.7)
1400m - 2:00.98 - (33.9)
1800m - 2:34.92 - (33.9)
2200m - 3:09.59 - (34.6)
2600m - 3:44.04 - (34.4)
3000m - 4:18.59 - (34.5)
3400m - 4:53.88 - (35.2)
3800m - 5:29.05 - (35.1)
4200m - 6:04.83 - (35.7)
4600m - 6:39.75 - (34.9)
5000m - 7:13.33 - (33.5)
26.93 43.333
13 1 Mathias  Hauer AUT AUT 7:15.73200m - 20.39 - (20.3)
600m - 52.53 - (32.1)
1000m - 1:25.60 - (33.0)
1400m - 1:59.39 - (33.7)
1800m - 2:32.90 - (33.5)
2200m - 3:07.00 - (34.0)
2600m - 3:41.86 - (34.8)
3000m - 4:16.51 - (34.6)
3400m - 4:52.25 - (35.7)
3800m - 5:28.38 - (36.1)
4200m - 6:04.06 - (35.6)
4600m - 6:40.15 - (36.0)
5000m - 7:15.73 - (35.5)
29.33 43.573
14 56 Vetle  Stangelan NOR NOR 7:16.82200m - 21.11 - (21.1)
600m - 54.39 - (33.2)
1000m - 1:29.50 - (35.1)
1400m - 2:04.14 - (34.6)
1800m - 2:38.46 - (34.3)
2200m - 3:12.76 - (34.2)
2600m - 3:46.62 - (33.8)
3000m - 4:20.91 - (34.2)
3400m - 4:55.59 - (34.6)
3800m - 5:30.32 - (34.7)
4200m - 6:05.20 - (34.8)
4600m - 6:40.64 - (35.4)
5000m - 7:16.82 - (36.1)
30.42 43.682
15 11 Tyson  Langelaar CAN CAN 7:17.66200m - 20.79 - (20.7)
600m - 54.35 - (33.5)
1000m - 1:28.65 - (34.3)
1400m - 2:02.61 - (33.9)
1800m - 2:37.44 - (34.8)
2200m - 3:12.12 - (34.6)
2600m - 3:46.70 - (34.5)
3000m - 4:21.22 - (34.5)
3400m - 4:55.83 - (34.6)
3800m - 5:30.48 - (34.6)
4200m - 6:05.83 - (35.3)
4600m - 6:41.50 - (35.6)
5000m - 7:17.66 - (36.1)
31.26 43.766
16 70 Ethan  Cepuran USA USA 7:18.83200m - 19.79 - (19.7)
600m - 52.28 - (32.4)
1000m - 1:25.73 - (33.4)
1400m - 1:59.22 - (33.4)
1800m - 2:32.72 - (33.5)
2200m - 3:07.02 - (34.3)
2600m - 3:41.78 - (34.7)
3000m - 4:17.08 - (35.2)
3400m - 4:52.78 - (35.6)
3800m - 5:28.93 - (36.1)
4200m - 6:05.90 - (36.9)
4600m - 6:41.86 - (35.9)
5000m - 7:18.83 - (36.9)
32.43 43.883
17 34 Kohki  Takamisawa JPN JPN 7:19.23200m - 20.66 - (20.6)
600m - 53.65 - (32.9)
1000m - 1:27.20 - (33.5)
1400m - 2:01.43 - (34.2)
1800m - 2:36.13 - (34.6)
2200m - 3:10.84 - (34.7)
2600m - 3:45.84 - (35.0)
3000m - 4:21.52 - (35.6)
3400m - 4:57.31 - (35.7)
3800m - 5:32.60 - (35.2)
4200m - 6:08.06 - (35.4)
4600m - 6:43.90 - (35.8)
5000m - 7:19.23 - (35.3)
32.83 43.923
18 24 Paul  Galczinsky GER GER 7:19.89200m - 20.13 - (20.1)
600m - 53.27 - (33.1)
1000m - 1:27.93 - (34.6)
1400m - 2:02.82 - (34.8)
1800m - 2:37.43 - (34.6)
2200m - 3:12.06 - (34.6)
2600m - 3:46.46 - (34.4)
3000m - 4:21.16 - (34.7)
3400m - 4:55.99 - (34.8)
3800m - 5:31.58 - (35.5)
4200m - 6:07.12 - (35.5)
4600m - 6:43.02 - (35.8)
5000m - 7:19.89 - (36.8)
33.49 43.989
19 46 Seok Jung  Yoon KOR KOR 7:20.52200m - 19.85 - (19.8)
600m - 52.41 - (32.5)
1000m - 1:25.86 - (33.4)
1400m - 1:59.23 - (33.3)
1800m - 2:32.42 - (33.1)
2200m - 3:05.40 - (32.9)
2600m - 3:39.36 - (33.9)
3000m - 4:14.81 - (35.4)
3400m - 4:51.31 - (36.5)
3800m - 5:28.84 - (37.5)
4200m - 6:06.37 - (37.5)
4600m - 6:43.68 - (37.3)
5000m - 7:20.52 - (36.8)
34.12 44.052
20 10 David  La Rue CAN CAN 7:21.55200m - 20.72 - (20.7)
600m - 53.62 - (32.8)
1000m - 1:28.29 - (34.6)
1400m - 2:03.13 - (34.8)
1800m - 2:38.18 - (35.0)
2200m - 3:13.23 - (35.0)
2600m - 3:48.18 - (34.9)
3000m - 4:23.23 - (35.0)
3400m - 4:58.60 - (35.3)
3800m - 5:34.29 - (35.6)
4200m - 6:09.64 - (35.3)
4600m - 6:45.28 - (35.6)
5000m - 7:21.55 - (36.2)
35.15 44.155
21 17 Jakub  Kopriva CZE CZE 7:25.36200m - 21.01 - (21.0)
600m - 54.28 - (33.2)
1000m - 1:28.19 - (33.9)
1400m - 2:02.38 - (34.1)
1800m - 2:37.32 - (34.9)
2200m - 3:12.48 - (35.1)
2600m - 3:48.40 - (35.9)
3000m - 4:24.67 - (36.2)
3400m - 5:01.70 - (37.0)
3800m - 5:38.29 - (36.5)
4200m - 6:14.16 - (35.8)
4600m - 6:49.14 - (34.9)
5000m - 7:25.36 - (36.2)
38.96 44.536
22 64 Aleksandr  Podolskii RUS RUS 7:26.48200m - 20.51 - (20.5)
600m - 55.26 - (34.7)
1000m - 1:29.87 - (34.6)
1400m - 2:04.14 - (34.2)
1800m - 2:39.12 - (34.9)
2200m - 3:14.13 - (35.0)
2600m - 3:49.78 - (35.6)
3000m - 4:25.58 - (35.7)
3400m - 5:01.62 - (36.0)
3800m - 5:38.49 - (36.8)
4200m - 6:15.25 - (36.7)
4600m - 6:51.59 - (36.3)
5000m - 7:26.48 - (34.8)
40.08 44.648
23 43 Do Hyung  Lee KOR KOR 7:27.55200m - 20.93 - (20.9)
600m - 54.11 - (33.1)
1000m - 1:28.30 - (34.1)
1400m - 2:03.07 - (34.7)
1800m - 2:37.74 - (34.6)
2200m - 3:12.53 - (34.7)
2600m - 3:47.76 - (35.2)
3000m - 4:23.92 - (36.1)
3400m - 5:00.48 - (36.5)
3800m - 5:37.16 - (36.6)
4200m - 6:14.13 - (36.9)
4600m - 6:51.14 - (37.0)
5000m - 7:27.55 - (36.4)
41.15 44.755
24 26 Lukas  Mann GER GER 7:28.24200m - 19.95 - (19.9)
600m - 53.92 - (33.9)
1000m - 1:27.77 - (33.8)
1400m - 2:03.19 - (35.4)
1800m - 2:37.42 - (34.2)
2200m - 3:11.88 - (34.4)
2600m - 3:47.63 - (35.7)
3000m - 4:23.16 - (35.5)
3400m - 4:59.08 - (35.9)
3800m - 5:35.09 - (36.0)
4200m - 6:12.19 - (37.1)
4600m - 6:50.10 - (37.9)
5000m - 7:28.24 - (38.1)
41.84 44.824
25 29 Francesco  Betti ITA ITA 7:29.04200m - 20.35 - (20.3)
600m - 53.94 - (33.5)
1000m - 1:29.01 - (35.0)
1400m - 2:03.99 - (34.9)
1800m - 2:39.63 - (35.6)
2200m - 3:15.25 - (35.6)
2600m - 3:50.89 - (35.6)
3000m - 4:26.35 - (35.4)
3400m - 5:02.53 - (36.1)
3800m - 5:38.98 - (36.4)
4200m - 6:16.78 - (37.8)
4600m - 6:53.42 - (36.6)
5000m - 7:28.86 - (35.4)
42.64 44.904
26 27 Jeremias  Marx GER GER 7:30.51200m - 20.50 - (20.5)
600m - 54.95 - (34.4)
1000m - 1:30.37 - (35.4)
1400m - 2:06.13 - (35.7)
1800m - 2:41.36 - (35.2)
2200m - 3:17.27 - (35.9)
2600m - 3:53.02 - (35.7)
3000m - 4:28.99 - (35.9)
3400m - 5:04.98 - (35.9)
3800m - 5:40.50 - (35.5)
4200m - 6:17.08 - (36.5)
4600m - 6:53.59 - (36.5)
5000m - 7:30.51 - (36.9)
44.11 45.051
27 59 Mateusz  Owczarek POL POL 7:30.85200m - 20.09 - (20.0)
600m - 53.59 - (33.5)
1000m - 1:28.77 - (35.1)
1400m - 2:04.96 - (36.1)
1800m - 2:41.33 - (36.3)
2200m - 3:17.08 - (35.7)
2600m - 3:52.67 - (35.5)
3000m - 4:28.82 - (36.1)
3400m - 5:05.68 - (36.8)
3800m - 5:42.15 - (36.4)
4200m - 6:18.76 - (36.6)
4600m - 6:54.92 - (36.1)
5000m - 7:30.85 - (35.9)
44.45 45.085
28 73 Conor  McDermott-Mostowy USA USA 7:31.42200m - 21.54 - (21.5)
600m - 53.62 - (32.0)
1000m - 1:27.80 - (34.1)
1400m - 2:02.17 - (34.3)
1800m - 2:37.65 - (35.4)
2200m - 3:13.48 - (35.8)
2600m - 3:49.94 - (36.4)
3000m - 4:27.04 - (37.1)
3400m - 5:03.95 - (36.9)
3800m - 5:40.46 - (36.5)
4200m - 6:17.36 - (36.9)
4600m - 6:54.17 - (36.8)
5000m - 7:31.42 - (37.2)
45.02 45.142
29 13 Yanan  Jin CHN CHN 7:34.10200m - 20.33 - (20.3)
600m - 54.91 - (34.5)
1000m - 1:29.43 - (34.5)
1400m - 2:04.32 - (34.8)
1800m - 2:39.74 - (35.4)
2200m - 3:15.61 - (35.8)
2600m - 3:51.92 - (36.3)
3000m - 4:27.70 - (35.7)
3400m - 5:03.96 - (36.2)
3800m - 5:40.09 - (36.1)
4200m - 6:17.28 - (37.1)
4600m - 6:55.84 - (38.5)
5000m - 7:34.10 - (38.2)
47.70 45.410
30 19 Kaspar  Kaljuvee EST EST 7:37.09200m - 20.58 - (20.5)
600m - 54.92 - (34.3)
1000m - 1:30.32 - (35.3)
1400m - 2:06.91 - (36.5)
1800m - 2:43.37 - (36.4)
2200m - 3:19.08 - (35.7)
2600m - 3:54.61 - (35.5)
3000m - 4:30.93 - (36.3)
3400m - 5:07.68 - (36.7)
3800m - 5:44.42 - (36.7)
4200m - 6:21.36 - (36.9)
4600m - 6:59.10 - (37.7)
5000m - 7:37.09 - (37.9)
50.69 45.709
31 58 Artur   Janicki POL POL 7:37.69200m - 20.55 - (20.5)
600m - 53.96 - (33.4)
1000m - 1:28.30 - (34.3)
1400m - 2:03.44 - (35.1)
1800m - 2:38.85 - (35.4)
2200m - 3:14.38 - (35.5)
2600m - 3:50.96 - (36.5)
3000m - 4:27.27 - (36.3)
3400m - 5:04.15 - (36.8)
3800m - 5:41.42 - (37.2)
4200m - 6:19.27 - (37.8)
4600m - 6:58.56 - (39.2)
5000m - 7:37.69 - (39.1)
51.29 45.769
32 72 Austin  Kleba USA USA 7:42.87200m - 20.67 - (20.6)
600m - 54.85 - (34.1)
1000m - 1:30.79 - (35.9)
1400m - 2:06.65 - (35.8)
1800m - 2:42.98 - (36.3)
2200m - 3:19.68 - (36.7)
2600m - 3:56.56 - (36.8)
3000m - 4:34.21 - (37.6)
3400m - 5:11.81 - (37.6)
3800m - 5:50.23 - (38.4)
4200m - 6:28.14 - (37.9)
4600m - 7:06.55 - (38.4)
5000m - 7:42.87 - (36.3)
56.47 46.287
33 9 Connor   Howe CAN CAN 7:44.44200m - 20.86 - (20.8)
600m - 55.44 - (34.5)
1000m - 1:31.97 - (36.5)
1400m - 2:09.26 - (37.2)
1800m - 2:45.40 - (36.1)
2200m - 3:22.67 - (37.2)
2600m - 3:59.87 - (37.2)
3000m - 4:37.50 - (37.6)
3400m - 5:14.93 - (37.4)
3800m - 5:51.85 - (36.9)
4200m - 6:29.43 - (37.5)
4600m - 7:07.04 - (37.6)
5000m - 7:44.44 - (37.3)
58.04 46.444
34 18 Oliver   Lindenskov DEN DEN 7:44.52200m - 20.76 - (20.7)
600m - 54.82 - (34.0)
1000m - 1:30.10 - (35.2)
1400m - 2:05.66 - (35.5)
1800m - 2:41.46 - (35.8)
2200m - 3:17.37 - (35.9)
2600m - 3:53.73 - (36.3)
3000m - 4:30.70 - (36.9)
3400m - 5:08.90 - (38.1)
3800m - 5:47.15 - (38.2)
4200m - 6:25.76 - (38.6)
4600m - 7:04.85 - (39.0)
5000m - 7:44.52 - (39.6)
58.12 46.452
35 68 Wilhelm  Ekensskär SWE SWE 7:49.49200m - 21.18 - (21.1)
600m - 53.90 - (32.7)
1000m - 1:27.11 - (33.2)
1400m - 2:01.96 - (34.8)
1800m - 2:37.87 - (35.9)
2200m - 3:14.90 - (37.0)
2600m - 3:53.15 - (38.2)
3000m - 4:31.95 - (38.7)
3400m - 5:10.60 - (38.6)
3800m - 5:49.94 - (39.3)
4200m - 6:29.64 - (39.6)
4600m - 7:09.71 - (40.0)
5000m - 7:49.49 - (39.7)
63.09 46.949
36 67 Colin  Biermann SUI SUI 7:51.54200m - 21.26 - (21.2)
600m - 56.38 - (35.1)
1000m - 1:33.02 - (36.6)
1400m - 2:10.01 - (36.9)
1800m - 2:47.41 - (37.4)
2200m - 3:25.10 - (37.6)
2600m - 4:03.60 - (38.5)
3000m - 4:42.01 - (38.4)
3400m - 5:20.37 - (38.3)
3800m - 5:58.96 - (38.5)
4200m - 6:36.93 - (37.9)
4600m - 7:14.26 - (37.3)
5000m - 7:51.54 - (37.2)
65.14 47.154
37 40 Demyan  Gavrilov KAZ KAZ 7:52.46200m - 21.87 - (21.8)
600m - 57.57 - (35.7)
1000m - 1:34.58 - (37.0)
1400m - 2:11.28 - (36.7)
1800m - 2:47.84 - (36.5)
2200m - 3:25.28 - (37.4)
2600m - 4:03.09 - (37.8)
3000m - 4:40.48 - (37.3)
3400m - 5:19.57 - (39.0)
3800m - 5:58.38 - (38.8)
4200m - 6:36.13 - (37.7)
4600m - 7:13.62 - (37.4)
5000m - 7:52.46 - (38.8)
66.06 47.246